Regional Weather Roundup
Issued by NWS

Home | Current Version | Previous Version | Text Only | Print | Product List | Glossary Off
Versions: 1 2 3 4 5 6 7 8 9 10 11 12 13 14 15 16 17 18 19 20 21 22 23 24 25 26 27 28 29 30 31 32 33 34 35 36 37 38 39 40 41 42 43 44 45 46 47 48 49 50

000
ASUS43 KMKX 310000
RWRWI

WISCONSIN REGIONAL WEATHER ROUNDUP
NATIONAL WEATHER SERVICE MILWAUKEE/SULLIVAN WI
700 PM CDT THU JUL 30 2015

NOTE: "FAIR" INDICATES FEW OR NO CLOUDS BELOW 12,000 FEET WITH NO
SIGNIFICANT WEATHER AND/OR OBSTRUCTIONS TO VISIBILITY.

WIZ001-002-006>008-014>016-023>028-310100-
NORTHWEST WISCONSIN

CITY           SKY/WX    TMP DP  RH WIND       PRES   REMARKS
SUPERIOR ARPT  MOSUNNY   80  55  42 W13G26    29.91S HX  80
ASHLAND        SUNNY     80  53  39 W9G20     29.90S HX  80
6HR MIN TEMP:  72; 6HR MAX TEMP:  84;

HAYWARD        MOSUNNY   80  54  40 W7G20     29.95F HX  80
6HR MIN TEMP:  77; 6HR MAX TEMP:  82; 6HR PCP: TRACE;

SIREN          SUNNY     80  53  39 W9G18     29.97F HX  80
CUMBERLAND     SUNNY     77  54  44 W14       29.99S
RICE LAKE      MOSUNNY   78  55  44 W10       29.99F
CHETEK         SUNNY     80  58  47 MISG      29.97F HX  80
LADYSMITH      SUNNY     80  56  44 W12       29.98F HX  80
EAU CLAIRE     SUNNY     81  57  43 W9        29.98F HX  81
6HR MIN TEMP:  81; 6HR MAX TEMP:  85;

MENOMONIE      SUNNY     83  54  37 W13       29.99F HX  82
NEW RICHMOND   SUNNY     81  53  38 W14       30.00F HX  80
OSCEOLA        PTSUNNY   80  57  44 W9        30.02F HX  80
$$

WIZ003>005-009-010-017-018-310100-
NORTH CENTRAL WISCONSIN

CITY           SKY/WX    TMP DP  RH WIND       PRES   REMARKS
MANITOWISH WTR MOSUNNY   70  62  76 CALM      29.94F
ARBOR VITAE    MOSUNNY   74  59  57 CALM      29.95F
WOODRUFF       MOSUNNY   74  59  57 CALM      29.95F
RHINELANDER    SUNNY     74  57  55 SW7       29.97F
6HR MIN TEMP:  72; 6HR MAX TEMP:  83;

EAGLE RIVER    SUNNY     68  58  71 SW6       29.95F
LAND O LAKES   SUNNY     73  56  56 W5        29.95S
PHILLIPS       SUNNY     76  57  52 W7        29.96S
6HR MIN TEMP:  65; 6HR MAX TEMP:  79;

TOMAHAWK       MOSUNNY   67  63  85 CALM      29.97F
MEDFORD        SUNNY     76  57  50 W10G24    29.99S
MERRILL        NOT AVBL
$$

WIZ029-030-035-036-043>047-310100-
CENTRAL WISCONSIN

CITY           SKY/WX    TMP DP  RH WIND       PRES   REMARKS
WAUSAU         CLOUDY    73  55  53 N6        29.96R
6HR MIN TEMP:  72; 6HR MAX TEMP:  85;

MOSINEE        MOSUNNY   79  54  41 W20G28    29.98F
MARSHFIELD     MOSUNNY   79  54  41 W14       29.99S
6HR MIN TEMP:  77; 6HR MAX TEMP:  84;

STEVENS POINT  MOSUNNY   80  54  40 W13G20    29.98S HX  80
WAUPACA        SUNNY     84  50  30 W9        29.96S HX  82
WAUTOMA        NOT AVBL
WISC RAPIDS    MOSUNNY   82  51  34 NW14G22   29.99S HX  81
6HR MIN TEMP:  82; 6HR MAX TEMP:  88;

CAMP DOUGLAS   NOT AVBL
$$

WIZ011>013-019>022-031-037>040-048>050-310100-
NORTHEAST WISCONSIN

CITY           SKY/WX    TMP DP  RH WIND       PRES   REMARKS
ANTIGO         CLOUDY    65  60  85 W5        29.98F
SHAWANO        MOSUNNY   79  55  42 W6        29.94S
OCONTO         MOSUNNY   80  57  44 W12       29.91R HX  81
STURGEON BAY   PTSUNNY   73  57  56 SW8G29    29.93S
6HR MIN TEMP:  73; 6HR MAX TEMP:  84;

GREEN BAY      MOSUNNY   79  60  52 W8        29.93S HX  80
6HR MIN TEMP:  77; 6HR MAX TEMP:  86; 6HR PCP:  0.01;

MANITOWOC      NOT AVBL
APPLETON       MOSUNNY   81  48  32 W15G21    29.95F HX  80
CLINTONVILLE   PTSUNNY   77  52  41 NW7       29.94S
OSHKOSH        SUNNY     82  53  36 W14G20    29.95S HX  81
6HR MIN TEMP:  82; 6HR MAX TEMP:  86;

$$

WIZ032>034-041-042-053>061-310100-
SOUTHWEST WISCONSIN

CITY           SKY/WX    TMP DP  RH WIND       PRES   REMARKS
LA CROSSE      SUNNY     83  57  41 W12       30.00F HX  82
6HR MIN TEMP:  83; 6HR MAX TEMP:  87;

SPARTA         SUNNY     82  52  34 W8G16     30.02S HX  81
VIROQUA        SUNNY     79  55  43 W8        30.05S HX  80
BOSCOBEL       SUNNY     84  56  38 W8        30.02F HX  83
6HR MIN TEMP:  84; 6HR MAX TEMP:  91;

PRAIRIE DU CHI SUNNY     85  50  29 W12G17    30.02F HX  82
PLATTEVILLE    SUNNY     82  57  41 W10       30.04S HX  82
$$

WIZ056-057-062-063-064-067-068-310100-
SOUTH CENTRAL WISCONSIN

CITY           SKY/WX    TMP DP  RH WIND       PRES   REMARKS
REEDSBURG      SUNNY     83  54  36 W14G20    30.00S HX  82
BARABOO/DELLS  SUNNY     83  47  28 W14G22    30.00S HX  81
LONE ROCK      NOT AVBL
MINERAL POINT  SUNNY     82  50  32 W13       30.04S HX  81
MADISON        SUNNY     83  54  36 W8G20     29.99F HX  82
6HR MIN TEMP:  83; 6HR MAX TEMP:  86;

MIDDLETON      SUNNY     84  49  29 W12G17    30.01S HX  82
WATERTOWN      SUNNY     82  55  40 W12G17    29.98F HX  81
MONROE         SUNNY     82  54  36 W16       30.02F HX  81
JANESVILLE     SUNNY     84  52  32 W12G17    29.99F HX  82
$$

WIZ051-052-058>065-066-070>072-310100-
SOUTHEAST WISCONSIN

CITY           SKY/WX    TMP DP  RH WIND       PRES   REMARKS
MILWAUKEE      MOSUNNY   86  49  27 NW14      29.96F HX  83
6HR MIN TEMP:  85; 6HR MAX TEMP:  88;

WAUKESHA       SUNNY     81  52  36 W16       29.99F HX  80
MILWAUKEE/TIMM SUNNY     82  45  26 W20       29.97F HX  80
RACINE         SUNNY     84  53  34 W7        29.98F HX  82
6HR MIN TEMP:  84; 6HR MAX TEMP:  87;

BURLINGTON     SUNNY     82  52  35 W7        29.99S HX  81
KENOSHA        SUNNY     82  56  40 W9        29.98F HX  82
6HR MIN TEMP:  82; 6HR MAX TEMP:  86;

FOND DU LAC    SUNNY     82  55  39 W12       29.95F HX  81
6HR MIN TEMP:  82; 6HR MAX TEMP:  88;

SHEBOYGAN      SUNNY     82  54  37 W10       29.94S HX  81
6HR MIN TEMP:  82; 6HR MAX TEMP:  86;

WEST BEND      SUNNY     82  46  28 W13G23    29.97S HX  81
JUNEAU         SUNNY     80  53  39 W9G16     29.99F HX  80
$$

LSZ147-162-310100-
LAKE SUPERIOR

STATION/POSITION TIME  TEMP    WIND        PRES    WAVE
                       AIR SEA DIR/SP/G            HT/PER
                 (UTC) (F)     (DEG/KT/KT) (MB)    (FT/S)
W MID LAKE BUOY  2250   61 53  230/ 14/ 14 1010.5S   2/ 4
DEVILS ISLAND    2300   70     230/ 10/ 12 1011.6F
PORT WING        2300   76     250/ 14/ 18 1012.2F
SAXON HARBOR     2300   78                 1011.9F
$$

LMZ867-665-643>646-310100-
LAKE MICHIGAN

STATION/POSITION TIME  TEMP    WIND        PRES    WAVE
                       AIR SEA DIR/SP/G            HT/PER
                 (UTC) (F)     (DEG/KT/KT) (MB)    (FT/S)
CHAMBERS ISLAND  2300   76     230/  3/  6 1011.9S
S GREEN BAY BUOY 2300   74 70  260/ 10/ 12 1014.1S
N MID LAKE BUOY  2250   72 69  270/  6/  6 1011.5R   2/ 5
NORTHPORT PIER   2300   80     260/  3/  8 1011.5F
SISTER BAY       2314   78     320/  9/ 11   N/A
ALGOMA LAKESHORE 2342          260/  6/ 11   N/A
KEWAUNEE LAKESHO 2300   83     280/ 13/ 19 1012.8R
SHEBOYGAN LAKESH 2300   84     290/ 17/ 22 1013.6S
PORT WASHINGTON  2300   87     270/  9/ 19 1014.6F
ATWATER BUOY     2300   79 63  260/ 17/ 19 1016.0F
MILWAUKEE LAKESH 2300   85     290/ 14/ 18   N/A
KENOSHA   LAKESH 2300   85     290/ 11/ 19 1014.6F
$$

TC  - TEMPERATURE IN CELSIUS
VSB - VISIBILITY IN STATUTE MILES
WCI - WIND CHILL INDEX
HX  - HEAT INDEX




USA.gov is the U.S. government's official web portal to all federal, state and local government web resources and services.